Location: Ferintosh
(52.7647°N, 112.9692°W)
Time: 14:10:56
(UTC+00:00)

Transit 2A - Pass Details

Date: 20 May 2024
Orbit: 592 x 959 km, 66.7° (Epoch: 23 June)

Event Time Altitude Azimuth Distance (km) Brightness Sun altitude
Rises 11:07:03 0° 300° (WNW) 3,158 9.0 -3.1°
Reaches altitude 10° 11:10:02 10° 319° (NW) 2,308 8.5 -2.8°
Maximum altitude 11:13:46 19° 4° (N) 1,847 8.6 -2.3°
Drops below altitude 10° 11:17:46 10° 48° (NE) 2,485 10.8 -1.9°
Sets 11:21:08 0° 66° (ENE) 3,490 11.5 -1.5°
